Showing default

HADES-R, 62690

Orbit data source: Space-Track

HADES-R, 62690 is a Spanish payload satellite in LEO that was launched on Tue, 14 Jan 2025 UTC via an FALCON 9 launch vehicle from the Air Force Western Test Range (AFWTR). Payload-class satellites include a variety of spacecraft equipped with specific instruments for various scientific and technological missions. These include communications satellites like Starlink; space stations such as the ISS; scientific satellites like the Hubble; Earth observation satellites from companies like Planet Labs, Umbra, and HawkEye 360; GPS; miniature CubeSats for education and research; and military/defense satellites.

Not visible in the next 10 days
Identifier
62690, 2025-009CK
Orbit
LEO
Country
Flag of ESES / SPN
Related business
Manufacturer
AMEA/HYDRA
Mission
Operational Amateur Communications
Bus & Motor
POCKETQUBE 1.5P, Unknown motor
Mass
0.375 kg wet, 0.25 kg dry
Launch date (UTC)
2025-01-14 (1 year ago)
Launch vehicle
FALCON 9
Launch site
Air Force Western Test Range (AFWTR)
Object type
Payload
Rocket body
Debris
Shape & HBR
Box, 0.1 m
Radar Cross Section
0.005 m², Small (<0.1 m²)

Expand to show TLE details & history
Last TLE update: 3 days ago

TLE from 3 days ago
0 HADES-R
1 62690U 25009CK  26032.99082620  .05664363  23962-5  28116-2 0  9998
2 62690  97.3536 123.7794 0009923 302.1245  57.9081 16.20799086 58844
Epoch: 2026-02-01T23:46Z
TLE epoch observation values (Epoch: 2026-02-01T23:46:47.383Z)
Latitude
-0.00002°
Longitude
-5.11056°
Altitude
217.137 km
Speed
7.778 km/s
True Right ascension
08h 15m 07s
True Declination
0° 00' 00"
Sunlit
Object was in full shadow at epoch
Visualization orbit readout
Latitude
Unknown
Longitude
Unknown
Altitude
Unknown
Speed
Unknown
Apparent Right ascension
Unknown
Apparent Declination
Unknown
Sunlit
N/A
Visualization observer readout
Local Sidereal Time
14:34:24
Azimuth
Unknown
Elevation
Unknown
Doppler factor
Unknown
Orbital elements
Apogee altitude
220.755 km
Perigee altitude
207.672 km
Semi-major axis
6,592.351 km
Eccentricity
0.00099
Inclination
97.3536°
RAAN
123.7794°
Arg. of periapsis
302.1245°
True anomaly
58.0045°
Mean anomaly
57.9081°
Eccentric anomaly
57.95629°
Mean motion
4.05492 °/min
Orbital period
88.78 mins
BSTAR
0.0028116
Loading maneuver chart data...
Computing Atmospheric mass density...
Loading historical data...
Loading historical data...
Loading historical data...
Loading historical data...
Loading historical data...
Loading historical data...
Loading historical data...

Documentation

Showing up to 5 results
|